Time,TemperatureF,DewpointF,PressureIn,WindDirection,WindDirectionDegrees,WindSpeedMPH,WindSpeedGustMPH,Humidity,HourlyPrecipIn,Conditions,Clouds,dailyrainin,SoftwareType,DateUTC
2013-08-10 00:04:00,69.5,67.0,29.99,SSE,164,0.0,-999.0,92,-99.99,,,0.00,weatherlink.com 1.10,2013-08-10 04:04:00,
2013-08-10 00:19:00,69.6,68.0,30.00,SSE,164,0.0,-999.0,93,-99.99,,,0.00,weatherlink.com 1.10,2013-08-10 04:19:00,
2013-08-10 00:34:00,69.3,68.0,30.00,SSE,164,0.0,-999.0,94,-99.99,,,0.00,weatherlink.com 1.10,2013-08-10 04:34:00,
2013-08-10 00:49:00,68.7,67.0,30.01,SSE,164,0.0,-999.0,94,-99.99,,,0.00,weatherlink.com 1.10,2013-08-10 04:49:00,
2013-08-10 01:04:00,68.5,67.0,30.00,SSE,164,0.0,-999.0,93,-99.99,,,0.00,weatherlink.com 1.10,2013-08-10 05:04:00,
2013-08-10 01:19:00,68.8,67.0,30.01,SSE,164,0.0,-999.0,94,-99.99,,,0.00,weatherlink.com 1.10,2013-08-10 05:19:00,
2013-08-10 01:34:00,68.3,66.0,30.01,SSE,164,0.0,-999.0,92,-99.99,,,0.00,weatherlink.com 1.10,2013-08-10 05:34:00,
2013-08-10 01:49:00,68.9,67.0,30.01,SSE,164,0.0,-999.0,94,-99.99,,,0.00,weatherlink.com 1.10,2013-08-10 05:49:00,
2013-08-10 02:05:00,69.0,67.0,30.01,SSE,164,0.0,-999.0,92,-99.99,,,0.00,weatherlink.com 1.10,2013-08-10 06:05:00,
2013-08-10 02:20:00,69.6,66.0,30.01,SSE,164,0.0,-999.0,88,-99.99,,,0.00,weatherlink.com 1.10,2013-08-10 06:20:00,
2013-08-10 02:35:00,69.4,67.0,30.00,SSE,164,0.0,-999.0,92,-99.99,,,0.00,weatherlink.com 1.10,2013-08-10 06:35:00,
2013-08-10 02:50:00,68.9,67.0,30.01,SSE,164,0.0,-999.0,93,-99.99,,,0.00,weatherlink.com 1.10,2013-08-10 06:50:00,
2013-08-10 03:05:00,68.7,67.0,30.00,SSE,164,0.0,-999.0,94,-99.99,,,0.00,weatherlink.com 1.10,2013-08-10 07:05:00,
2013-08-10 03:20:00,68.1,67.0,30.01,SSE,164,0.0,-999.0,95,-99.99,,,0.00,weatherlink.com 1.10,2013-08-10 07:20:00,
2013-08-10 03:35:00,67.6,67.0,30.02,SSE,164,0.0,-999.0,96,-99.99,,,0.00,weatherlink.com 1.10,2013-08-10 07:35:00,
2013-08-10 03:50:00,67.4,66.0,30.01,SSE,164,0.0,-999.0,96,-99.99,,,0.00,weatherlink.com 1.10,2013-08-10 07:50:00,
2013-08-10 04:05:00,67.4,66.0,30.01,SSE,164,0.0,-999.0,95,-99.99,,,0.00,weatherlink.com 1.10,2013-08-10 08:05:00,
2013-08-10 04:20:00,67.3,66.0,30.01,SSE,164,0.0,-999.0,96,-99.99,,,0.00,weatherlink.com 1.10,2013-08-10 08:20:00,
2013-08-10 04:35:00,67.3,66.0,30.01,SSE,164,0.0,-999.0,96,-99.99,,,0.00,weatherlink.com 1.10,2013-08-10 08:35:00,
2013-08-10 04:50:00,67.1,66.0,30.01,SSE,164,0.0,-999.0,96,-99.99,,,0.00,weatherlink.com 1.10,2013-08-10 08:50:00,
2013-08-10 05:05:00,66.9,66.0,30.02,SSE,164,0.0,-999.0,96,-99.99,,,0.00,weatherlink.com 1.10,2013-08-10 09:05:00,
2013-08-10 05:20:00,66.9,66.0,30.02,SSE,164,0.0,-999.0,97,-99.99,,,0.00,weatherlink.com 1.10,2013-08-10 09:20:00,
2013-08-10 05:35:00,67.1,66.0,30.02,SSE,164,0.0,-999.0,96,-99.99,,,0.00,weatherlink.com 1.10,2013-08-10 09:35:00,
2013-08-10 05:50:00,67.2,66.0,30.03,SSE,164,0.0,-999.0,96,-99.99,,,0.00,weatherlink.com 1.10,2013-08-10 09:50:00,
2013-08-10 06:05:00,67.2,66.0,30.03,SSE,164,0.0,-999.0,96,-99.99,,,0.00,weatherlink.com 1.10,2013-08-10 10:05:00,
2013-08-10 06:20:00,67.0,66.0,30.02,SSE,164,0.0,-999.0,96,-99.99,,,0.00,weatherlink.com 1.10,2013-08-10 10:20:00,
2013-08-10 06:35:00,66.7,66.0,30.02,SSE,164,0.0,-999.0,96,-99.99,,,0.00,weatherlink.com 1.10,2013-08-10 10:35:00,
2013-08-10 06:50:00,66.8,66.0,30.02,SSE,164,0.0,-999.0,97,-99.99,,,0.00,weatherlink.com 1.10,2013-08-10 10:50:00,
2013-08-10 07:05:00,66.6,66.0,30.02,SSE,164,0.0,-999.0,97,-99.99,,,0.00,weatherlink.com 1.10,2013-08-10 11:05:00,
2013-08-10 07:20:00,66.4,66.0,30.02,SSE,164,0.0,-999.0,97,-99.99,,,0.00,weatherlink.com 1.10,2013-08-10 11:20:00,
2013-08-10 07:35:00,66.3,66.0,30.03,SSE,164,0.0,-999.0,97,-99.99,,,0.00,weatherlink.com 1.10,2013-08-10 11:35:00,
2013-08-10 07:50:00,66.5,66.0,30.03,SSE,164,0.0,-999.0,97,-99.99,,,0.00,weatherlink.com 1.10,2013-08-10 11:50:00,
2013-08-10 08:05:00,66.8,66.0,30.03,NE,43,0.0,-999.0,97,-99.99,,,0.00,weatherlink.com 1.10,2013-08-10 12:05:00,
2013-08-10 08:20:00,67.9,67.0,30.04,NE,43,0.0,-999.0,97,-99.99,,,0.00,weatherlink.com 1.10,2013-08-10 12:20:00,
2013-08-10 08:35:00,69.6,68.0,30.03,NE,43,0.0,-999.0,94,-99.99,,,0.00,weatherlink.com 1.10,2013-08-10 12:35:00,
2013-08-10 08:50:00,70.4,67.0,30.03,West,275,0.0,-999.0,90,-99.99,,,0.00,weatherlink.com 1.10,2013-08-10 12:50:00,
2013-08-10 09:05:00,71.3,68.0,30.04,West,275,0.0,-999.0,90,-99.99,,,0.00,weatherlink.com 1.10,2013-08-10 13:05:00,
2013-08-10 09:20:00,72.3,68.0,30.04,West,275,0.0,-999.0,87,-99.99,,,0.00,weatherlink.com 1.10,2013-08-10 13:20:00,
2013-08-10 09:35:00,73.9,69.0,30.04,West,275,0.0,-999.0,84,-99.99,,,0.00,weatherlink.com 1.10,2013-08-10 13:35:00,
2013-08-10 09:50:00,74.5,69.0,30.04,West,275,0.0,-999.0,84,-99.99,,,0.00,weatherlink.com 1.10,2013-08-10 13:50:00,
2013-08-10 10:05:00,75.7,71.0,30.04,West,275,0.0,-999.0,85,-99.99,,,0.00,weatherlink.com 1.10,2013-08-10 14:05:00,
2013-08-10 10:20:00,75.9,70.0,30.04,West,275,1.0,-999.0,82,-99.99,,,0.00,weatherlink.com 1.10,2013-08-10 14:20:00,
2013-08-10 10:35:00,76.2,70.0,30.05,West,275,4.0,-999.0,82,-99.99,,,0.00,weatherlink.com 1.10,2013-08-10 14:35:00,
2013-08-10 10:50:00,76.9,70.0,30.05,West,275,0.0,-999.0,80,-99.99,,,0.00,weatherlink.com 1.10,2013-08-10 14:50:00,
2013-08-10 11:05:00,77.8,71.0,30.05,West,276,0.0,-999.0,79,-99.99,,,0.00,weatherlink.com 1.10,2013-08-10 15:05:00,
2013-08-10 11:20:00,78.4,72.0,30.05,SW,214,3.0,-999.0,80,-99.99,,,0.00,weatherlink.com 1.10,2013-08-10 15:20:00,
2013-08-10 11:35:00,78.8,71.0,30.06,SW,228,4.0,-999.0,78,-99.99,,,0.00,weatherlink.com 1.10,2013-08-10 15:35:00,
2013-08-10 11:51:00,79.3,72.0,30.06,WNW,283,0.0,-999.0,77,-99.99,,,0.00,weatherlink.com 1.10,2013-08-10 15:51:00,
2013-08-10 12:06:00,79.7,71.0,30.05,WSW,238,6.0,-999.0,74,-99.99,,,0.00,weatherlink.com 1.10,2013-08-10 16:06:00,
2013-08-10 12:21:00,79.8,70.0,30.05,West,281,3.0,-999.0,73,-99.99,,,0.00,weatherlink.com 1.10,2013-08-10 16:21:00,
2013-08-10 12:36:00,80.0,71.0,30.05,WNW,285,0.0,-999.0,73,-99.99,,,0.00,weatherlink.com 1.10,2013-08-10 16:36:00,
2013-08-10 12:51:00,80.1,72.0,30.05,WNW,302,1.0,-999.0,75,-99.99,,,0.00,weatherlink.com 1.10,2013-08-10 16:51:00,
2013-08-10 13:06:00,80.5,71.0,30.05,NNW,329,0.0,-999.0,72,-99.99,,,0.00,weatherlink.com 1.10,2013-08-10 17:06:00,
2013-08-10 13:21:00,80.7,70.0,30.04,West,262,0.0,-999.0,70,-99.99,,,0.00,weatherlink.com 1.10,2013-08-10 17:21:00,
2013-08-10 13:36:00,81.2,72.0,30.04,WNW,295,4.0,-999.0,73,-99.99,,,0.00,weatherlink.com 1.10,2013-08-10 17:36:00,
2013-08-10 13:51:00,81.4,71.0,30.04,WSW,237,0.0,-999.0,71,-99.99,,,0.00,weatherlink.com 1.10,2013-08-10 17:51:00,
2013-08-10 14:06:00,81.9,71.0,30.04,North,355,1.0,-999.0,70,-99.99,,,0.00,weatherlink.com 1.10,2013-08-10 18:06:00,
2013-08-10 14:21:00,81.2,71.0,30.04,WNW,288,0.0,-999.0,70,-99.99,,,0.00,weatherlink.com 1.10,2013-08-10 18:21:00,
2013-08-10 14:36:00,81.8,72.0,30.04,WSW,254,3.0,-999.0,72,-99.99,,,0.00,weatherlink.com 1.10,2013-08-10 18:36:00,
2013-08-10 14:51:00,82.8,71.0,30.03,WSW,250,2.0,-999.0,68,-99.99,,,0.00,weatherlink.com 1.10,2013-08-10 18:51:00,
2013-08-10 15:06:00,81.8,70.0,30.03,West,273,5.0,-999.0,68,-99.99,,,0.00,weatherlink.com 1.10,2013-08-10 19:06:00,
2013-08-10 15:21:00,81.3,71.0,30.03,WNW,290,1.0,-999.0,71,-99.99,,,0.00,weatherlink.com 1.10,2013-08-10 19:21:00,
2013-08-10 15:36:00,81.2,70.0,30.03,NNE,13,2.0,-999.0,69,-99.99,,,0.00,weatherlink.com 1.10,2013-08-10 19:36:00,
2013-08-10 15:51:00,81.4,71.0,30.02,WNW,301,2.0,-999.0,70,-99.99,,,0.00,weatherlink.com 1.10,2013-08-10 19:51:00,
2013-08-10 16:06:00,80.9,70.0,30.02,NNW,330,4.0,-999.0,70,-99.99,,,0.00,weatherlink.com 1.10,2013-08-10 20:06:00,
2013-08-10 16:21:00,81.1,69.0,30.02,North,5,2.0,-999.0,67,-99.99,,,0.00,weatherlink.com 1.10,2013-08-10 20:21:00,
2013-08-10 16:36:00,81.1,69.0,30.02,NNW,340,3.0,-999.0,67,-99.99,,,0.00,weatherlink.com 1.10,2013-08-10 20:36:00,
2013-08-10 16:51:00,81.5,68.0,30.02,NW,316,3.0,-999.0,64,-99.99,,,0.00,weatherlink.com 1.10,2013-08-10 20:51:00,
2013-08-10 17:06:00,81.7,68.0,30.01,WSW,254,6.0,-999.0,64,-99.99,,,0.00,weatherlink.com 1.10,2013-08-10 21:06:00,
2013-08-10 17:21:00,82.0,69.0,30.01,NNW,342,5.0,-999.0,64,-99.99,,,0.00,weatherlink.com 1.10,2013-08-10 21:21:00,
2013-08-10 17:36:00,82.1,68.0,30.01,NW,325,3.0,-999.0,63,-99.99,,,0.00,weatherlink.com 1.10,2013-08-10 21:36:00,
2013-08-10 17:51:00,82.2,68.0,30.00,NW,315,4.0,-999.0,62,-99.99,,,0.00,weatherlink.com 1.10,2013-08-10 21:51:00,
2013-08-10 18:06:00,82.1,67.0,30.00,North,9,3.0,-999.0,61,-99.99,,,0.00,weatherlink.com 1.10,2013-08-10 22:06:00,
2013-08-10 18:21:00,81.7,65.0,30.00,NW,317,2.0,-999.0,58,-99.99,,,0.00,weatherlink.com 1.10,2013-08-10 22:21:00,
2013-08-10 18:36:00,81.4,66.0,30.00,North,355,0.0,-999.0,60,-99.99,,,0.00,weatherlink.com 1.10,2013-08-10 22:36:00,
2013-08-10 18:51:00,81.8,66.0,30.00,North,350,2.0,-999.0,59,-99.99,,,0.00,weatherlink.com 1.10,2013-08-10 22:51:00,
2013-08-10 19:06:00,81.6,66.0,30.00,WNW,287,1.0,-999.0,59,-99.99,,,0.00,weatherlink.com 1.10,2013-08-10 23:06:00,
2013-08-10 19:21:00,81.0,66.0,30.00,WNW,286,2.0,-999.0,61,-99.99,,,0.00,weatherlink.com 1.10,2013-08-10 23:21:00,
2013-08-10 19:36:00,80.7,65.0,30.00,WNW,290,2.0,-999.0,60,-99.99,,,0.00,weatherlink.com 1.10,2013-08-10 23:36:00,
2013-08-10 19:51:00,80.3,66.0,30.00,WNW,290,0.0,-999.0,62,-99.99,,,0.00,weatherlink.com 1.10,2013-08-10 23:51:00,
2013-08-10 20:06:00,79.7,66.0,30.00,WNW,290,1.0,-999.0,63,-99.99,,,0.00,weatherlink.com 1.10,2013-08-11 00:06:00,
2013-08-10 20:21:00,78.5,66.0,30.00,WNW,290,0.0,-999.0,65,-99.99,,,0.00,weatherlink.com 1.10,2013-08-11 00:21:00,
2013-08-10 20:36:00,77.1,65.0,30.00,WNW,290,1.0,-999.0,66,-99.99,,,0.00,weatherlink.com 1.10,2013-08-11 00:36:00,
2013-08-10 20:51:00,76.0,66.0,30.01,WNW,290,0.0,-999.0,71,-99.99,,,0.00,weatherlink.com 1.10,2013-08-11 00:51:00,
2013-08-10 21:06:00,74.2,66.0,30.01,WNW,290,0.0,-999.0,75,-99.99,,,0.00,weatherlink.com 1.10,2013-08-11 01:06:00,
2013-08-10 21:21:00,73.6,66.0,30.01,NE,55,1.0,-999.0,78,-99.99,,,0.00,weatherlink.com 1.10,2013-08-11 01:21:00,
2013-08-10 21:36:00,72.6,66.0,30.02,NE,55,0.0,-999.0,80,-99.99,,,0.00,weatherlink.com 1.10,2013-08-11 01:36:00,
2013-08-10 21:51:00,71.3,66.0,30.03,NE,55,0.0,-999.0,84,-99.99,,,0.00,weatherlink.com 1.10,2013-08-11 01:51:00,
2013-08-10 22:06:00,70.5,66.0,30.03,NE,55,0.0,-999.0,86,-99.99,,,0.00,weatherlink.com 1.10,2013-08-11 02:06:00,
2013-08-10 22:21:00,69.9,66.0,30.04,NE,55,0.0,-999.0,88,-99.99,,,0.00,weatherlink.com 1.10,2013-08-11 02:21:00,
2013-08-10 22:36:00,69.4,66.0,30.04,NE,55,0.0,-999.0,90,-99.99,,,0.00,weatherlink.com 1.10,2013-08-11 02:36:00,
2013-08-10 23:06:00,68.8,66.0,30.04,NE,55,0.0,-999.0,90,-99.99,,,0.00,weatherlink.com 1.10,2013-08-11 03:06:00,